Location: Unspecified
(0.0000°N, 0.0000°E)
Time: 00:08:48
(UTC+02:00)

ISS - Visible Passes

Search period start: 30 April 2025 00:00
Search period end: 10 May 2025 00:00
Orbit: 417 x 420 km, 51.6° (Epoch: 29 April)

Date Brightness Start Highest point End Pass type
(mag) Time Alt. Az. Time Alt. Az. Time Alt. Az.
05 May -0.6 21:58:10 10° WSW 21:58:20 11° WSW 21:58:20 11° WSW visible
06 May -3.7 21:09:51 10° SW 21:13:12 76° NW 21:15:22 20° NNE visible
07 May -3.3 20:22:04 10° SSW 20:25:15 40° SE 20:28:24 10° NE visible
08 May -0.5 21:11:55 10° W 21:13:48 14° NW 21:15:41 10° NNW visible
09 May -0.2 07:11:48 10° NNE 07:13:10 12° NE 07:14:33 10° ENE visible
09 May -1.6 20:22:45 10° WSW 20:25:46 31° NW 20:28:47 10° N visible
